Weather History for Pellston, MI

Change the Weather History Date:

Monday, April 22, 2013

  Actual Average Record
Temperature  
Mean Temperature 48 °F -  
Max Temperature 62 °F 57 °F 86 °F (1985)
Min Temperature 34 °F 31 °F 17 °F (1950)
Degree Days  
Heating Degree Days 18    
Moisture  
Dew Point 29 °F    
Average Humidity 54    
Maximum Humidity 85    
Minimum Humidity 36    
Precipitation  
Precipitation 0.00 in - - ()
Sea Level Pressure  
Sea Level Pressure 30.27 in    
Wind  
Wind Speed 7 mph (SE)    
Max Wind Speed 12 mph    
Max Gust Speed 16 mph    
Visibility 10 miles    
Events      
Averages and records for this station are not official NWS values.
T = Trace of Precipitation, MM = Missing Value Source: NWS Daily Summary

Daily Weather History Graph

Daily Weather History Graph

Search for Another Location

Airport:

Trip Planner

Search our weather history database for the weather conditions in past years. The results will help you decide how hot, cold, wet, or windy it might be!

Date:

Astronomy

Apr. 22, 2013 Rise Set
Actual Time 6:41 AM EDT 8:34 PM EDT
Civil Twilight 6:09 AM EDT 9:06 PM EDT
Nautical Twilight 5:30 AM EDT 9:45 PM EDT
Astronomical Twilight 4:48 AM EDT 10:28 PM EDT
Moon 5:14 PM EDT (4/22) 4:45 AM EDT (4/22)
Length of Visible Light 14h 57m
Length of Day
13h 53m
Waxing Gibbous, 87% of the Moon is Illuminated
Apr 22
Waxing Gibbous
Apr 25
Full
May 2
Last Quarter
May 9
New
May 18
First Quarter

Hourly Weather History & Observations

Time (EDT) Temp. Windchill Dew Point Humidity Pressure Visibility Wind Dir Wind Speed Gust Speed Precip Events Conditions
12:54 AM 36.0 °F 29.6 °F 25.0 °F 64% 30.38 in 10.0 mi SE 8.1 mph - N/A   Clear
1:54 AM 36.0 °F 30.3 °F 26.1 °F 67% 30.37 in 10.0 mi SE 6.9 mph - N/A   Clear
2:54 AM 37.0 °F 31.0 °F 26.1 °F 65% 30.34 in 10.0 mi SE 8.1 mph - N/A   Clear
3:54 AM 37.9 °F 34.4 °F 26.1 °F 62% 30.33 in 10.0 mi SSE 4.6 mph - N/A   Scattered Clouds
4:54 AM 37.0 °F 32.4 °F 26.1 °F 65% 30.33 in 10.0 mi SE 5.8 mph - N/A   Mostly Cloudy
5:54 AM 37.9 °F 35.5 °F 25.0 °F 60% 30.35 in 10.0 mi East 3.5 mph - N/A   Overcast
6:54 AM 37.0 °F 32.4 °F 24.1 °F 59% 30.34 in 10.0 mi ESE 5.8 mph - N/A   Overcast
7:54 AM 37.9 °F 32.7 °F 25.0 °F 60% 30.34 in 10.0 mi SE 6.9 mph - N/A   Overcast
8:54 AM 39.9 °F 34.5 °F 25.0 °F 55% 30.34 in 10.0 mi SE 8.1 mph - N/A   Partly Cloudy
9:54 AM 46.9 °F - 26.1 °F 44% 30.33 in 10.0 mi South 9.2 mph 16.1 mph N/A   Clear
10:54 AM 50.0 °F - 27.0 °F 41% 30.32 in 10.0 mi South 9.2 mph 16.1 mph N/A   Overcast
11:54 AM 54.0 °F - 28.0 °F 37% 30.31 in 10.0 mi SW 6.9 mph - N/A   Overcast
12:54 PM 57.0 °F - 30.0 °F 36% 30.29 in 10.0 mi South 8.1 mph - N/A   Scattered Clouds
1:54 PM 59.0 °F - 34.0 °F 39% 30.26 in 10.0 mi SSW 10.4 mph - N/A   Clear
2:54 PM 60.1 °F - 33.1 °F 36% 30.25 in 10.0 mi SSW 4.6 mph - N/A   Clear
3:54 PM 59.0 °F - 32.0 °F 36% 30.23 in 10.0 mi North 10.4 mph - N/A   Clear
4:54 PM 57.9 °F - 32.0 °F 37% 30.21 in 10.0 mi NNE 11.5 mph - N/A   Clear
5:54 PM 55.9 °F - 32.0 °F 40% 30.19 in 10.0 mi North 11.5 mph - N/A   Clear
6:54 PM 57.0 °F - 33.1 °F 40% 30.17 in 10.0 mi NNE 3.5 mph - N/A   Clear
7:54 PM 52.0 °F - 33.1 °F 49% 30.17 in 10.0 mi NW 6.9 mph - N/A   Clear
8:54 PM 43.0 °F 38.8 °F 32.0 °F 65% 30.17 in 10.0 mi WNW 6.9 mph - N/A   Clear
9:54 PM 39.0 °F - 30.9 °F 73% 30.18 in 10.0 mi Calm Calm - N/A   Clear
10:54 PM 35.1 °F - 30.0 °F 82% 30.17 in 10.0 mi Calm Calm - N/A   Clear
11:54 PM 34.0 °F - 30.0 °F 85% 30.15 in 10.0 mi Calm Calm - N/A   Clear